• Join FlightAware (Why Join?)
  • Login
  • US Flag 
01:13PM EST


 

Airport Tracker/Info


-or-


 

Live Flight TrackerFlight Track Log ✈ N422CP ✈ 19-Aug-2013 ✈ KMSP - KLNK

Flight Track Log - Related Links

Times and Time Zones

All times are in EDT time to prevent confusion due to time zone crossing. See the N422CP flight status page for this flight to view local times or setup timezone preferences in your user account.

Time Position Orientation Groundspeed Altitude Reporting Facility
EDT Latitude Longitude Course Direction KTS MPH feet Rate Location/Type
07:52AM 44.8658 -93.1811 121° Southeast 191 220 2,900  Level Minneapolis Center
07:53AM 44.8297 -93.0969 121° Southeast 247 284 6,000 3,148 Climbing Minneapolis Center
07:54AM 44.7594 -93.0817 171° South 283 326 9,300 4,180 Climbing Minneapolis Center
07:55AM 44.7044 -93.1589 225° Southwest 272 313 14,500 4,119 Climbing Minneapolis Center
07:56AM 44.6428 -93.2278 218° Southwest 276 318 18,500 3,269 Climbing Minneapolis Center
07:57AM 44.5619 -93.3106 216° Southwest 294 338 21,800 2,803 Climbing Minneapolis Center
07:58AM 44.4897 -93.3811 215° Southwest 311 358 24,200 2,976 Climbing Minneapolis Center
07:59AM 44.3939 -93.4769 216° Southwest 348 400 27,900 3,268 Climbing Minneapolis Center
08:00AM 44.3117 -93.5581 215° Southwest 358 412 30,900 2,754 Climbing Minneapolis Center
08:01AM 44.2281 -93.6411 215° Southwest 367 422 33,500 2,262 Climbing Minneapolis Center
08:02AM 44.1425 -93.7256 215° Southwest 376 433 35,500 1,230 Climbing Minneapolis Center
08:03AM 44.0522 -93.8147 215° Southwest 392 451 36,000 246 Climbing Minneapolis Center
08:04AM 43.9533 -93.9108 215° Southwest 426 490 36,000  Level Minneapolis Center
08:05AM 43.8536 -94.0083 215° Southwest 438 504 36,000  Level Minneapolis Center
08:06AM 43.7544 -94.1036 215° Southwest 435 501 36,000  Level Minneapolis Center
08:07AM 43.6556 -94.2006 215° Southwest 436 502 36,000  Level Minneapolis Center
08:08AM 43.5411 -94.3089 214° Southwest 433 498 36,000  Level Minneapolis Center
08:09AM 43.4422 -94.4036 215° Southwest 432 497 36,000  Level Minneapolis Center
08:10AM 43.3425 -94.4989 215° Southwest 435 501 36,000  Level Minneapolis Center
08:11AM 43.2425 -94.5939 215° Southwest 436 502 36,000  Level Minneapolis Center
08:12AM 43.1439 -94.6872 215° Southwest 433 498 36,000  Level Minneapolis Center
08:13AM 43.0419 -94.7836 215° Southwest 439 505 36,000  Level Minneapolis Center
08:14AM 42.9389 -94.8794 214° Southwest 445 512 36,000  Level Minneapolis Center
08:15AM 42.8364 -94.9753 214° Southwest 446 513 36,000  Level Minneapolis Center
08:17AM 42.7281 -95.0775 215° Southwest 451 519 36,000  Level Minneapolis Center
08:18AM 42.6231 -95.1744 214° Southwest 455 524 36,000  Level Minneapolis Center
08:19AM 42.5189 -95.2711 214° Southwest 454 522 36,000 -390 Level Minneapolis Center
08:20AM 42.3944 -95.3864 214° Southwest 454 522 35,200 -1,317 Descending Minneapolis Center
08:21AM 42.2925 -95.4792 214° Southwest 444 511 33,300 -1,951 Descending Minneapolis Center
08:22AM 42.1889 -95.5733 214° Southwest 448 516 31,200 -2,049 Descending Minneapolis Center
08:23AM 42.0842 -95.6669 214° Southwest 453 521 29,100 -2,049 Descending Minneapolis Center
08:24AM 41.9789 -95.7617 214° Southwest 454 522 27,000 -2,049 Descending Minneapolis Center
08:25AM 41.8758 -95.8547 214° Southwest 448 516 24,900 -2,032 Descending Minneapolis Center
08:26AM 41.7792 -95.9428 214° Southwest 431 496 22,800 -2,244 Descending Minneapolis Center
08:27AM 41.6672 -96.0422 214° Southwest 408 470 20,300 -2,098 Descending Minneapolis Center
08:28AM 41.5739 -96.1239 213° Southwest 395 455 18,500 -1,742 Descending Minneapolis Center
08:29AM 41.4911 -96.2008 215° Southwest 383 441 16,700 -1,805 Descending Minneapolis Center
08:30AM 41.4028 -96.2783 213° Southwest 386 444 14,800 -1,854 Descending Minneapolis Center
08:31AM 41.3139 -96.3556 213° Southwest 386 444 12,900 -1,839 Descending Minneapolis Center
08:32AM 41.2294 -96.4292 213° Southwest 374 430 11,000 -1,805 Descending Minneapolis Center
08:33AM 41.1436 -96.5042 213° Southwest 322 371 9,200 -1,756 Descending Minneapolis Center
08:34AM 41.0772 -96.5617 213° Southwest 297 342 7,400 -1,935 Descending Minneapolis Center
08:35AM 41.0156 -96.6156 213° Southwest 278 320 5,200 -2,132 Descending Minneapolis Center
08:36AM 40.9442 -96.6661 208° Southwest 238 274 3,100 -1,300 Descending Minneapolis Center
08:37AM 40.9208 -96.7292 244° Southwest 178 205 2,600 -541 Descending Minneapolis Center
08:38AM 40.8883 -96.7464 202° Southwest 102 117 2,000 -595 Descending Minneapolis Center
08:39AM 40.8611 -96.7464 180° South 108 124 1,400 -600 Descending Minneapolis Center